Tracking 27423 objects as of 8-Jun-2023
HD Live streaming from Space Station
objects crossing your sky now

STARLINK-1088

Track STARLINK-1088 now!
10-day predictions
STARLINK-1088 is classified as:


NORAD ID: 44966
Int'l Code: 2020-001BE
Perigee: 527.1 km
Apogee: 530.1 km
Inclination: 53.1 °
Period: 95.1 minutes
Semi major axis: 6899 km
RCS: Unknown
Launch date: January 7, 2020
Source: United States (US)
Launch site: AIR FORCE EASTERN TEST RANGE (AFETR)
Your satellite tracking list
Your tracking list is empty




NASA's NSSDC Master Catalog

Two Line Element Set (TLE):
1 44966U 20001BE  23158.64145060  .00009880  00000-0  54073-3 0  9994
2 44966  53.0533 138.5942 0002207  22.0146 338.0941 15.14847564188839
Source of the keplerian elements: AFSPC